index,time,SiteAddr,SiteName,app,area,date,device_id,gps_alt,gps_fix,gps_lat,gps_lon,gps_num,name,s_d0,s_d1,s_d2,s_h0,s_t0,timestamp
0,09:50:58,高雄市民生國小 高雄市那瑪夏區達卡努瓦里大光巷七鄰159號,高雄市市立民生國小(2018),AirBox,kaohsiung,2024-03-22,74DA38F20B0C,2.0,1.0,23.276,120.721,9.0,myPM2.5_0C,20.0,21.0,14.0,82.0,22.87,2024-03-22T09:50:58Z
1,09:57:05,高雄市民生國小 高雄市那瑪夏區達卡努瓦里大光巷七鄰159號,高雄市市立民生國小(2018),AirBox,kaohsiung,2024-03-22,74DA38F20B0C,2.0,1.0,23.276,120.721,9.0,myPM2.5_0C,21.0,22.0,14.0,84.0,22.75,2024-03-22T09:57:05Z
2,10:03:12,高雄市民生國小 高雄市那瑪夏區達卡努瓦里大光巷七鄰159號,高雄市市立民生國小(2018),AirBox,kaohsiung,2024-03-22,74DA38F20B0C,2.0,1.0,23.276,120.721,9.0,myPM2.5_0C,21.0,22.0,14.0,84.0,22.5,2024-03-22T10:03:12Z
3,10:09:39,高雄市民生國小 高雄市那瑪夏區達卡努瓦里大光巷七鄰159號,高雄市市立民生國小(2018),AirBox,kaohsiung,2024-03-22,74DA38F20B0C,2.0,1.0,23.276,120.721,9.0,myPM2.5_0C,21.0,22.0,14.0,86.0,22.37,2024-03-22T10:09:39Z
4,10:15:47,高雄市民生國小 高雄市那瑪夏區達卡努瓦里大光巷七鄰159號,高雄市市立民生國小(2018),AirBox,kaohsiung,2024-03-22,74DA38F20B0C,2.0,1.0,23.276,120.721,9.0,myPM2.5_0C,21.0,22.0,13.0,88.0,22.0,2024-03-22T10:15:47Z
5,10:21:54,高雄市民生國小 高雄市那瑪夏區達卡努瓦里大光巷七鄰159號,高雄市市立民生國小(2018),AirBox,kaohsiung,2024-03-22,74DA38F20B0C,2.0,1.0,23.276,120.721,9.0,myPM2.5_0C,19.0,20.0,13.0,89.0,21.87,2024-03-22T10:21:54Z
6,10:28:01,高雄市民生國小 高雄市那瑪夏區達卡努瓦里大光巷七鄰159號,高雄市市立民生國小(2018),AirBox,kaohsiung,2024-03-22,74DA38F20B0C,2.0,1.0,23.276,120.721,9.0,myPM2.5_0C,20.0,21.0,13.0,90.0,21.62,2024-03-22T10:28:01Z
7,10:34:09,高雄市民生國小 高雄市那瑪夏區達卡努瓦里大光巷七鄰159號,高雄市市立民生國小(2018),AirBox,kaohsiung,2024-03-22,74DA38F20B0C,2.0,1.0,23.276,120.721,9.0,myPM2.5_0C,21.0,22.0,14.0,90.0,21.5,2024-03-22T10:34:09Z
8,10:40:26,高雄市民生國小 高雄市那瑪夏區達卡努瓦里大光巷七鄰159號,高雄市市立民生國小(2018),AirBox,kaohsiung,2024-03-22,74DA38F20B0C,2.0,1.0,23.276,120.721,9.0,myPM2.5_0C,21.0,22.0,14.0,91.0,21.37,2024-03-22T10:40:26Z
9,10:46:34,高雄市民生國小 高雄市那瑪夏區達卡努瓦里大光巷七鄰159號,高雄市市立民生國小(2018),AirBox,kaohsiung,2024-03-22,74DA38F20B0C,2.0,1.0,23.276,120.721,9.0,myPM2.5_0C,22.0,23.0,14.0,92.0,21.37,2024-03-22T10:46:34Z
10,10:52:43,高雄市民生國小 高雄市那瑪夏區達卡努瓦里大光巷七鄰159號,高雄市市立民生國小(2018),AirBox,kaohsiung,2024-03-22,74DA38F20B0C,2.0,1.0,23.276,120.721,9.0,myPM2.5_0C,21.0,23.0,14.0,92.0,21.25,2024-03-22T10:52:43Z
11,10:58:50,高雄市民生國小 高雄市那瑪夏區達卡努瓦里大光巷七鄰159號,高雄市市立民生國小(2018),AirBox,kaohsiung,2024-03-22,74DA38F20B0C,2.0,1.0,23.276,120.721,9.0,myPM2.5_0C,22.0,23.0,14.0,93.0,21.0,2024-03-22T10:58:50Z
12,11:04:59,高雄市民生國小 高雄市那瑪夏區達卡努瓦里大光巷七鄰159號,高雄市市立民生國小(2018),AirBox,kaohsiung,2024-03-22,74DA38F20B0C,2.0,1.0,23.276,120.721,9.0,myPM2.5_0C,23.0,24.0,15.0,94.0,21.0,2024-03-22T11:04:59Z
13,11:11:07,高雄市民生國小 高雄市那瑪夏區達卡努瓦里大光巷七鄰159號,高雄市市立民生國小(2018),AirBox,kaohsiung,2024-03-22,74DA38F20B0C,2.0,1.0,23.276,120.721,9.0,myPM2.5_0C,24.0,25.0,15.0,95.0,20.87,2024-03-22T11:11:07Z
14,11:17:16,高雄市民生國小 高雄市那瑪夏區達卡努瓦里大光巷七鄰159號,高雄市市立民生國小(2018),AirBox,kaohsiung,2024-03-22,74DA38F20B0C,2.0,1.0,23.276,120.721,9.0,myPM2.5_0C,23.0,24.0,15.0,96.0,20.75,2024-03-22T11:17:16Z
15,11:23:22,高雄市民生國小 高雄市那瑪夏區達卡努瓦里大光巷七鄰159號,高雄市市立民生國小(2018),AirBox,kaohsiung,2024-03-22,74DA38F20B0C,2.0,1.0,23.276,120.721,9.0,myPM2.5_0C,23.0,25.0,15.0,96.0,20.5,2024-03-22T11:23:22Z
16,11:29:28,高雄市民生國小 高雄市那瑪夏區達卡努瓦里大光巷七鄰159號,高雄市市立民生國小(2018),AirBox,kaohsiung,2024-03-22,74DA38F20B0C,2.0,1.0,23.276,120.721,9.0,myPM2.5_0C,22.0,23.0,15.0,97.0,20.37,2024-03-22T11:29:28Z
17,11:35:36,高雄市民生國小 高雄市那瑪夏區達卡努瓦里大光巷七鄰159號,高雄市市立民生國小(2018),AirBox,kaohsiung,2024-03-22,74DA38F20B0C,2.0,1.0,23.276,120.721,9.0,myPM2.5_0C,23.0,25.0,16.0,98.0,20.37,2024-03-22T11:35:36Z
18,11:41:43,高雄市民生國小 高雄市那瑪夏區達卡努瓦里大光巷七鄰159號,高雄市市立民生國小(2018),AirBox,kaohsiung,2024-03-22,74DA38F20B0C,2.0,1.0,23.276,120.721,9.0,myPM2.5_0C,23.0,24.0,15.0,98.0,20.25,2024-03-22T11:41:43Z
19,11:47:54,高雄市民生國小 高雄市那瑪夏區達卡努瓦里大光巷七鄰159號,高雄市市立民生國小(2018),AirBox,kaohsiung,2024-03-22,74DA38F20B0C,2.0,1.0,23.276,120.721,9.0,myPM2.5_0C,25.0,27.0,16.0,99.0,20.12,2024-03-22T11:47:54Z
20,11:54:01,高雄市民生國小 高雄市那瑪夏區達卡努瓦里大光巷七鄰159號,高雄市市立民生國小(2018),AirBox,kaohsiung,2024-03-22,74DA38F20B0C,2.0,1.0,23.276,120.721,9.0,myPM2.5_0C,24.0,25.0,16.0,100.0,20.0,2024-03-22T11:54:01Z
21,12:00:12,高雄市民生國小 高雄市那瑪夏區達卡努瓦里大光巷七鄰159號,高雄市市立民生國小(2018),AirBox,kaohsiung,2024-03-22,74DA38F20B0C,2.0,1.0,23.276,120.721,9.0,myPM2.5_0C,25.0,26.0,16.0,100.0,20.0,2024-03-22T12:00:12Z
22,12:06:22,高雄市民生國小 高雄市那瑪夏區達卡努瓦里大光巷七鄰159號,高雄市市立民生國小(2018),AirBox,kaohsiung,2024-03-22,74DA38F20B0C,2.0,1.0,23.276,120.721,9.0,myPM2.5_0C,25.0,27.0,16.0,100.0,19.87,2024-03-22T12:06:22Z
23,12:12:31,高雄市民生國小 高雄市那瑪夏區達卡努瓦里大光巷七鄰159號,高雄市市立民生國小(2018),AirBox,kaohsiung,2024-03-22,74DA38F20B0C,2.0,1.0,23.276,120.721,9.0,myPM2.5_0C,25.0,26.0,16.0,100.0,19.75,2024-03-22T12:12:31Z
24,12:18:41,高雄市民生國小 高雄市那瑪夏區達卡努瓦里大光巷七鄰159號,高雄市市立民生國小(2018),AirBox,kaohsiung,2024-03-22,74DA38F20B0C,2.0,1.0,23.276,120.721,9.0,myPM2.5_0C,26.0,27.0,17.0,100.0,19.75,2024-03-22T12:18:41Z
25,12:24:50,高雄市民生國小 高雄市那瑪夏區達卡努瓦里大光巷七鄰159號,高雄市市立民生國小(2018),AirBox,kaohsiung,2024-03-22,74DA38F20B0C,2.0,1.0,23.276,120.721,9.0,myPM2.5_0C,26.0,27.0,16.0,100.0,19.75,2024-03-22T12:24:50Z
26,12:30:58,高雄市民生國小 高雄市那瑪夏區達卡努瓦里大光巷七鄰159號,高雄市市立民生國小(2018),AirBox,kaohsiung,2024-03-22,74DA38F20B0C,2.0,1.0,23.276,120.721,9.0,myPM2.5_0C,25.0,27.0,17.0,100.0,19.75,2024-03-22T12:30:58Z
27,12:37:05,高雄市民生國小 高雄市那瑪夏區達卡努瓦里大光巷七鄰159號,高雄市市立民生國小(2018),AirBox,kaohsiung,2024-03-22,74DA38F20B0C,2.0,1.0,23.276,120.721,9.0,myPM2.5_0C,25.0,27.0,17.0,100.0,19.62,2024-03-22T12:37:05Z
28,12:43:16,高雄市民生國小 高雄市那瑪夏區達卡努瓦里大光巷七鄰159號,高雄市市立民生國小(2018),AirBox,kaohsiung,2024-03-22,74DA38F20B0C,2.0,1.0,23.276,120.721,9.0,myPM2.5_0C,25.0,27.0,16.0,100.0,19.5,2024-03-22T12:43:16Z
29,12:49:25,高雄市民生國小 高雄市那瑪夏區達卡努瓦里大光巷七鄰159號,高雄市市立民生國小(2018),AirBox,kaohsiung,2024-03-22,74DA38F20B0C,2.0,1.0,23.276,120.721,9.0,myPM2.5_0C,26.0,28.0,17.0,100.0,19.5,2024-03-22T12:49:25Z
30,12:55:38,高雄市民生國小 高雄市那瑪夏區達卡努瓦里大光巷七鄰159號,高雄市市立民生國小(2018),AirBox,kaohsiung,2024-03-22,74DA38F20B0C,2.0,1.0,23.276,120.721,9.0,myPM2.5_0C,27.0,28.0,17.0,100.0,19.37,2024-03-22T12:55:38Z
31,13:01:48,高雄市民生國小 高雄市那瑪夏區達卡努瓦里大光巷七鄰159號,高雄市市立民生國小(2018),AirBox,kaohsiung,2024-03-22,74DA38F20B0C,2.0,1.0,23.276,120.721,9.0,myPM2.5_0C,25.0,26.0,16.0,100.0,19.25,2024-03-22T13:01:48Z
32,13:07:56,高雄市民生國小 高雄市那瑪夏區達卡努瓦里大光巷七鄰159號,高雄市市立民生國小(2018),AirBox,kaohsiung,2024-03-22,74DA38F20B0C,2.0,1.0,23.276,120.721,9.0,myPM2.5_0C,25.0,26.0,17.0,100.0,19.12,2024-03-22T13:07:56Z
33,13:14:06,高雄市民生國小 高雄市那瑪夏區達卡努瓦里大光巷七鄰159號,高雄市市立民生國小(2018),AirBox,kaohsiung,2024-03-22,74DA38F20B0C,2.0,1.0,23.276,120.721,9.0,myPM2.5_0C,26.0,27.0,17.0,100.0,19.12,2024-03-22T13:14:06Z
34,13:20:14,高雄市民生國小 高雄市那瑪夏區達卡努瓦里大光巷七鄰159號,高雄市市立民生國小(2018),AirBox,kaohsiung,2024-03-22,74DA38F20B0C,2.0,1.0,23.276,120.721,9.0,myPM2.5_0C,25.0,26.0,16.0,100.0,19.12,2024-03-22T13:20:14Z
35,13:26:23,高雄市民生國小 高雄市那瑪夏區達卡努瓦里大光巷七鄰159號,高雄市市立民生國小(2018),AirBox,kaohsiung,2024-03-22,74DA38F20B0C,2.0,1.0,23.276,120.721,9.0,myPM2.5_0C,25.0,27.0,17.0,100.0,19.12,2024-03-22T13:26:23Z
36,13:32:34,高雄市民生國小 高雄市那瑪夏區達卡努瓦里大光巷七鄰159號,高雄市市立民生國小(2018),AirBox,kaohsiung,2024-03-22,74DA38F20B0C,2.0,1.0,23.276,120.721,9.0,myPM2.5_0C,26.0,27.0,16.0,100.0,19.0,2024-03-22T13:32:34Z
37,13:38:43,高雄市民生國小 高雄市那瑪夏區達卡努瓦里大光巷七鄰159號,高雄市市立民生國小(2018),AirBox,kaohsiung,2024-03-22,74DA38F20B0C,2.0,1.0,23.276,120.721,9.0,myPM2.5_0C,25.0,26.0,16.0,100.0,19.0,2024-03-22T13:38:43Z
38,13:44:54,高雄市民生國小 高雄市那瑪夏區達卡努瓦里大光巷七鄰159號,高雄市市立民生國小(2018),AirBox,kaohsiung,2024-03-22,74DA38F20B0C,2.0,1.0,23.276,120.721,9.0,myPM2.5_0C,26.0,27.0,16.0,100.0,18.87,2024-03-22T13:44:54Z
39,13:51:05,高雄市民生國小 高雄市那瑪夏區達卡努瓦里大光巷七鄰159號,高雄市市立民生國小(2018),AirBox,kaohsiung,2024-03-22,74DA38F20B0C,2.0,1.0,23.276,120.721,9.0,myPM2.5_0C,26.0,27.0,16.0,100.0,18.87,2024-03-22T13:51:05Z
40,13:57:15,高雄市民生國小 高雄市那瑪夏區達卡努瓦里大光巷七鄰159號,高雄市市立民生國小(2018),AirBox,kaohsiung,2024-03-22,74DA38F20B0C,2.0,1.0,23.276,120.721,9.0,myPM2.5_0C,26.0,27.0,17.0,100.0,18.87,2024-03-22T13:57:15Z
41,14:03:23,高雄市民生國小 高雄市那瑪夏區達卡努瓦里大光巷七鄰159號,高雄市市立民生國小(2018),AirBox,kaohsiung,2024-03-22,74DA38F20B0C,2.0,1.0,23.276,120.721,9.0,myPM2.5_0C,24.0,26.0,16.0,100.0,18.75,2024-03-22T14:03:23Z
42,14:16:08,高雄市民生國小 高雄市那瑪夏區達卡努瓦里大光巷七鄰159號,高雄市市立民生國小(2018),AirBox,kaohsiung,2024-03-22,74DA38F20B0C,2.0,1.0,23.276,120.721,9.0,myPM2.5_0C,24.0,26.0,16.0,100.0,18.62,2024-03-22T14:16:08Z
43,14:22:17,高雄市民生國小 高雄市那瑪夏區達卡努瓦里大光巷七鄰159號,高雄市市立民生國小(2018),AirBox,kaohsiung,2024-03-22,74DA38F20B0C,2.0,1.0,23.276,120.721,9.0,myPM2.5_0C,25.0,26.0,17.0,100.0,18.62,2024-03-22T14:22:17Z
44,14:28:24,高雄市民生國小 高雄市那瑪夏區達卡努瓦里大光巷七鄰159號,高雄市市立民生國小(2018),AirBox,kaohsiung,2024-03-22,74DA38F20B0C,2.0,1.0,23.276,120.721,9.0,myPM2.5_0C,23.0,24.0,16.0,100.0,18.62,2024-03-22T14:28:24Z
45,14:34:34,高雄市民生國小 高雄市那瑪夏區達卡努瓦里大光巷七鄰159號,高雄市市立民生國小(2018),AirBox,kaohsiung,2024-03-22,74DA38F20B0C,2.0,1.0,23.276,120.721,9.0,myPM2.5_0C,25.0,27.0,16.0,100.0,18.62,2024-03-22T14:34:34Z
46,14:40:43,高雄市民生國小 高雄市那瑪夏區達卡努瓦里大光巷七鄰159號,高雄市市立民生國小(2018),AirBox,kaohsiung,2024-03-22,74DA38F20B0C,2.0,1.0,23.276,120.721,9.0,myPM2.5_0C,25.0,26.0,15.0,100.0,18.5,2024-03-22T14:40:43Z
47,14:46:53,高雄市民生國小 高雄市那瑪夏區達卡努瓦里大光巷七鄰159號,高雄市市立民生國小(2018),AirBox,kaohsiung,2024-03-22,74DA38F20B0C,2.0,1.0,23.276,120.721,9.0,myPM2.5_0C,24.0,24.0,15.0,100.0,18.5,2024-03-22T14:46:53Z
48,14:53:04,高雄市民生國小 高雄市那瑪夏區達卡努瓦里大光巷七鄰159號,高雄市市立民生國小(2018),AirBox,kaohsiung,2024-03-22,74DA38F20B0C,2.0,1.0,23.276,120.721,9.0,myPM2.5_0C,25.0,26.0,16.0,100.0,18.37,2024-03-22T14:53:04Z
49,14:59:14,高雄市民生國小 高雄市那瑪夏區達卡努瓦里大光巷七鄰159號,高雄市市立民生國小(2018),AirBox,kaohsiung,2024-03-22,74DA38F20B0C,2.0,1.0,23.276,120.721,9.0,myPM2.5_0C,24.0,25.0,15.0,100.0,18.37,2024-03-22T14:59:14Z
50,15:05:23,高雄市民生國小 高雄市那瑪夏區達卡努瓦里大光巷七鄰159號,高雄市市立民生國小(2018),AirBox,kaohsiung,2024-03-22,74DA38F20B0C,2.0,1.0,23.276,120.721,9.0,myPM2.5_0C,23.0,24.0,15.0,100.0,18.37,2024-03-22T15:05:23Z
51,15:11:30,高雄市民生國小 高雄市那瑪夏區達卡努瓦里大光巷七鄰159號,高雄市市立民生國小(2018),AirBox,kaohsiung,2024-03-22,74DA38F20B0C,2.0,1.0,23.276,120.721,9.0,myPM2.5_0C,21.0,22.0,14.0,100.0,18.37,2024-03-22T15:11:30Z
52,15:17:37,高雄市民生國小 高雄市那瑪夏區達卡努瓦里大光巷七鄰159號,高雄市市立民生國小(2018),AirBox,kaohsiung,2024-03-22,74DA38F20B0C,2.0,1.0,23.276,120.721,9.0,myPM2.5_0C,21.0,22.0,14.0,100.0,18.5,2024-03-22T15:17:37Z
53,15:23:48,高雄市民生國小 高雄市那瑪夏區達卡努瓦里大光巷七鄰159號,高雄市市立民生國小(2018),AirBox,kaohsiung,2024-03-22,74DA38F20B0C,2.0,1.0,23.276,120.721,9.0,myPM2.5_0C,22.0,23.0,14.0,100.0,18.37,2024-03-22T15:23:48Z
54,15:29:56,高雄市民生國小 高雄市那瑪夏區達卡努瓦里大光巷七鄰159號,高雄市市立民生國小(2018),AirBox,kaohsiung,2024-03-22,74DA38F20B0C,2.0,1.0,23.276,120.721,9.0,myPM2.5_0C,22.0,23.0,14.0,100.0,18.37,2024-03-22T15:29:56Z
55,15:36:06,高雄市民生國小 高雄市那瑪夏區達卡努瓦里大光巷七鄰159號,高雄市市立民生國小(2018),AirBox,kaohsiung,2024-03-22,74DA38F20B0C,2.0,1.0,23.276,120.721,9.0,myPM2.5_0C,23.0,24.0,14.0,100.0,18.37,2024-03-22T15:36:06Z
56,15:42:15,高雄市民生國小 高雄市那瑪夏區達卡努瓦里大光巷七鄰159號,高雄市市立民生國小(2018),AirBox,kaohsiung,2024-03-22,74DA38F20B0C,2.0,1.0,23.276,120.721,9.0,myPM2.5_0C,22.0,23.0,14.0,100.0,18.25,2024-03-22T15:42:15Z
57,15:48:23,高雄市民生國小 高雄市那瑪夏區達卡努瓦里大光巷七鄰159號,高雄市市立民生國小(2018),AirBox,kaohsiung,2024-03-22,74DA38F20B0C,2.0,1.0,23.276,120.721,9.0,myPM2.5_0C,21.0,22.0,13.0,100.0,18.37,2024-03-22T15:48:23Z
58,15:54:34,高雄市民生國小 高雄市那瑪夏區達卡努瓦里大光巷七鄰159號,高雄市市立民生國小(2018),AirBox,kaohsiung,2024-03-22,74DA38F20B0C,2.0,1.0,23.276,120.721,9.0,myPM2.5_0C,22.0,23.0,13.0,100.0,18.25,2024-03-22T15:54:34Z
59,16:00:44,高雄市民生國小 高雄市那瑪夏區達卡努瓦里大光巷七鄰159號,高雄市市立民生國小(2018),AirBox,kaohsiung,2024-03-22,74DA38F20B0C,2.0,1.0,23.276,120.721,9.0,myPM2.5_0C,21.0,22.0,13.0,100.0,18.25,2024-03-22T16:00:44Z
60,16:06:51,高雄市民生國小 高雄市那瑪夏區達卡努瓦里大光巷七鄰159號,高雄市市立民生國小(2018),AirBox,kaohsiung,2024-03-22,74DA38F20B0C,2.0,1.0,23.276,120.721,9.0,myPM2.5_0C,21.0,23.0,13.0,100.0,18.37,2024-03-22T16:06:51Z
61,16:12:58,高雄市民生國小 高雄市那瑪夏區達卡努瓦里大光巷七鄰159號,高雄市市立民生國小(2018),AirBox,kaohsiung,2024-03-22,74DA38F20B0C,2.0,1.0,23.276,120.721,9.0,myPM2.5_0C,22.0,23.0,14.0,100.0,18.25,2024-03-22T16:12:58Z
62,16:19:07,高雄市民生國小 高雄市那瑪夏區達卡努瓦里大光巷七鄰159號,高雄市市立民生國小(2018),AirBox,kaohsiung,2024-03-22,74DA38F20B0C,2.0,1.0,23.276,120.721,9.0,myPM2.5_0C,22.0,23.0,14.0,100.0,18.25,2024-03-22T16:19:07Z
63,16:25:17,高雄市民生國小 高雄市那瑪夏區達卡努瓦里大光巷七鄰159號,高雄市市立民生國小(2018),AirBox,kaohsiung,2024-03-22,74DA38F20B0C,2.0,1.0,23.276,120.721,9.0,myPM2.5_0C,21.0,22.0,13.0,100.0,18.25,2024-03-22T16:25:17Z
64,16:31:26,高雄市民生國小 高雄市那瑪夏區達卡努瓦里大光巷七鄰159號,高雄市市立民生國小(2018),AirBox,kaohsiung,2024-03-22,74DA38F20B0C,2.0,1.0,23.276,120.721,9.0,myPM2.5_0C,21.0,22.0,14.0,100.0,18.25,2024-03-22T16:31:26Z
65,16:37:34,高雄市民生國小 高雄市那瑪夏區達卡努瓦里大光巷七鄰159號,高雄市市立民生國小(2018),AirBox,kaohsiung,2024-03-22,74DA38F20B0C,2.0,1.0,23.276,120.721,9.0,myPM2.5_0C,21.0,22.0,13.0,100.0,18.12,2024-03-22T16:37:34Z
66,16:43:41,高雄市民生國小 高雄市那瑪夏區達卡努瓦里大光巷七鄰159號,高雄市市立民生國小(2018),AirBox,kaohsiung,2024-03-22,74DA38F20B0C,2.0,1.0,23.276,120.721,9.0,myPM2.5_0C,22.0,23.0,14.0,100.0,18.0,2024-03-22T16:43:41Z
67,16:49:48,高雄市民生國小 高雄市那瑪夏區達卡努瓦里大光巷七鄰159號,高雄市市立民生國小(2018),AirBox,kaohsiung,2024-03-22,74DA38F20B0C,2.0,1.0,23.276,120.721,9.0,myPM2.5_0C,21.0,22.0,14.0,100.0,18.0,2024-03-22T16:49:48Z
68,16:55:59,高雄市民生國小 高雄市那瑪夏區達卡努瓦里大光巷七鄰159號,高雄市市立民生國小(2018),AirBox,kaohsiung,2024-03-22,74DA38F20B0C,2.0,1.0,23.276,120.721,9.0,myPM2.5_0C,23.0,24.0,14.0,100.0,18.0,2024-03-22T16:55:59Z
69,17:02:06,高雄市民生國小 高雄市那瑪夏區達卡努瓦里大光巷七鄰159號,高雄市市立民生國小(2018),AirBox,kaohsiung,2024-03-22,74DA38F20B0C,2.0,1.0,23.276,120.721,9.0,myPM2.5_0C,22.0,23.0,14.0,100.0,17.87,2024-03-22T17:02:06Z
70,17:08:16,高雄市民生國小 高雄市那瑪夏區達卡努瓦里大光巷七鄰159號,高雄市市立民生國小(2018),AirBox,kaohsiung,2024-03-22,74DA38F20B0C,2.0,1.0,23.276,120.721,9.0,myPM2.5_0C,22.0,23.0,13.0,100.0,17.87,2024-03-22T17:08:16Z
71,17:14:25,高雄市民生國小 高雄市那瑪夏區達卡努瓦里大光巷七鄰159號,高雄市市立民生國小(2018),AirBox,kaohsiung,2024-03-22,74DA38F20B0C,2.0,1.0,23.276,120.721,9.0,myPM2.5_0C,23.0,24.0,14.0,100.0,18.0,2024-03-22T17:14:25Z
72,17:20:45,高雄市民生國小 高雄市那瑪夏區達卡努瓦里大光巷七鄰159號,高雄市市立民生國小(2018),AirBox,kaohsiung,2024-03-22,74DA38F20B0C,2.0,1.0,23.276,120.721,9.0,myPM2.5_0C,22.0,24.0,13.0,100.0,17.87,2024-03-22T17:20:45Z
73,17:26:54,高雄市民生國小 高雄市那瑪夏區達卡努瓦里大光巷七鄰159號,高雄市市立民生國小(2018),AirBox,kaohsiung,2024-03-22,74DA38F20B0C,2.0,1.0,23.276,120.721,9.0,myPM2.5_0C,22.0,23.0,13.0,100.0,17.87,2024-03-22T17:26:54Z
74,17:33:22,高雄市民生國小 高雄市那瑪夏區達卡努瓦里大光巷七鄰159號,高雄市市立民生國小(2018),AirBox,kaohsiung,2024-03-22,74DA38F20B0C,2.0,1.0,23.276,120.721,9.0,myPM2.5_0C,23.0,25.0,13.0,100.0,17.75,2024-03-22T17:33:22Z
75,17:39:32,高雄市民生國小 高雄市那瑪夏區達卡努瓦里大光巷七鄰159號,高雄市市立民生國小(2018),AirBox,kaohsiung,2024-03-22,74DA38F20B0C,2.0,1.0,23.276,120.721,9.0,myPM2.5_0C,22.0,24.0,13.0,100.0,17.75,2024-03-22T17:39:32Z
76,17:45:43,高雄市民生國小 高雄市那瑪夏區達卡努瓦里大光巷七鄰159號,高雄市市立民生國小(2018),AirBox,kaohsiung,2024-03-22,74DA38F20B0C,2.0,1.0,23.276,120.721,9.0,myPM2.5_0C,23.0,24.0,14.0,100.0,17.75,2024-03-22T17:45:43Z
77,17:51:52,高雄市民生國小 高雄市那瑪夏區達卡努瓦里大光巷七鄰159號,高雄市市立民生國小(2018),AirBox,kaohsiung,2024-03-22,74DA38F20B0C,2.0,1.0,23.276,120.721,9.0,myPM2.5_0C,21.0,22.0,13.0,100.0,17.75,2024-03-22T17:51:52Z
78,17:58:00,高雄市民生國小 高雄市那瑪夏區達卡努瓦里大光巷七鄰159號,高雄市市立民生國小(2018),AirBox,kaohsiung,2024-03-22,74DA38F20B0C,2.0,1.0,23.276,120.721,9.0,myPM2.5_0C,22.0,23.0,13.0,100.0,17.75,2024-03-22T17:58:00Z
79,18:04:23,高雄市民生國小 高雄市那瑪夏區達卡努瓦里大光巷七鄰159號,高雄市市立民生國小(2018),AirBox,kaohsiung,2024-03-22,74DA38F20B0C,2.0,1.0,23.276,120.721,9.0,myPM2.5_0C,22.0,22.0,13.0,100.0,17.62,2024-03-22T18:04:23Z
80,18:10:31,高雄市民生國小 高雄市那瑪夏區達卡努瓦里大光巷七鄰159號,高雄市市立民生國小(2018),AirBox,kaohsiung,2024-03-22,74DA38F20B0C,2.0,1.0,23.276,120.721,9.0,myPM2.5_0C,20.0,21.0,13.0,100.0,17.62,2024-03-22T18:10:31Z
81,18:16:40,高雄市民生國小 高雄市那瑪夏區達卡努瓦里大光巷七鄰159號,高雄市市立民生國小(2018),AirBox,kaohsiung,2024-03-22,74DA38F20B0C,2.0,1.0,23.276,120.721,9.0,myPM2.5_0C,22.0,23.0,13.0,100.0,17.62,2024-03-22T18:16:40Z
82,18:22:49,高雄市民生國小 高雄市那瑪夏區達卡努瓦里大光巷七鄰159號,高雄市市立民生國小(2018),AirBox,kaohsiung,2024-03-22,74DA38F20B0C,2.0,1.0,23.276,120.721,9.0,myPM2.5_0C,22.0,23.0,13.0,100.0,17.5,2024-03-22T18:22:49Z
83,18:28:58,高雄市民生國小 高雄市那瑪夏區達卡努瓦里大光巷七鄰159號,高雄市市立民生國小(2018),AirBox,kaohsiung,2024-03-22,74DA38F20B0C,2.0,1.0,23.276,120.721,9.0,myPM2.5_0C,23.0,24.0,13.0,100.0,17.37,2024-03-22T18:28:58Z
84,18:35:08,高雄市民生國小 高雄市那瑪夏區達卡努瓦里大光巷七鄰159號,高雄市市立民生國小(2018),AirBox,kaohsiung,2024-03-22,74DA38F20B0C,2.0,1.0,23.276,120.721,9.0,myPM2.5_0C,22.0,24.0,13.0,100.0,17.37,2024-03-22T18:35:08Z
85,18:41:16,高雄市民生國小 高雄市那瑪夏區達卡努瓦里大光巷七鄰159號,高雄市市立民生國小(2018),AirBox,kaohsiung,2024-03-22,74DA38F20B0C,2.0,1.0,23.276,120.721,9.0,myPM2.5_0C,22.0,23.0,13.0,100.0,17.37,2024-03-22T18:41:16Z
86,18:47:25,高雄市民生國小 高雄市那瑪夏區達卡努瓦里大光巷七鄰159號,高雄市市立民生國小(2018),AirBox,kaohsiung,2024-03-22,74DA38F20B0C,2.0,1.0,23.276,120.721,9.0,myPM2.5_0C,23.0,24.0,14.0,100.0,17.37,2024-03-22T18:47:25Z
87,18:53:35,高雄市民生國小 高雄市那瑪夏區達卡努瓦里大光巷七鄰159號,高雄市市立民生國小(2018),AirBox,kaohsiung,2024-03-22,74DA38F20B0C,2.0,1.0,23.276,120.721,9.0,myPM2.5_0C,23.0,24.0,14.0,100.0,17.5,2024-03-22T18:53:35Z
88,18:59:44,高雄市民生國小 高雄市那瑪夏區達卡努瓦里大光巷七鄰159號,高雄市市立民生國小(2018),AirBox,kaohsiung,2024-03-22,74DA38F20B0C,2.0,1.0,23.276,120.721,9.0,myPM2.5_0C,23.0,24.0,14.0,100.0,17.5,2024-03-22T18:59:44Z
89,19:05:54,高雄市民生國小 高雄市那瑪夏區達卡努瓦里大光巷七鄰159號,高雄市市立民生國小(2018),AirBox,kaohsiung,2024-03-22,74DA38F20B0C,2.0,1.0,23.276,120.721,9.0,myPM2.5_0C,23.0,24.0,13.0,100.0,17.5,2024-03-22T19:05:54Z
90,19:12:05,高雄市民生國小 高雄市那瑪夏區達卡努瓦里大光巷七鄰159號,高雄市市立民生國小(2018),AirBox,kaohsiung,2024-03-22,74DA38F20B0C,2.0,1.0,23.276,120.721,9.0,myPM2.5_0C,24.0,25.0,14.0,100.0,17.37,2024-03-22T19:12:05Z
91,19:18:16,高雄市民生國小 高雄市那瑪夏區達卡努瓦里大光巷七鄰159號,高雄市市立民生國小(2018),AirBox,kaohsiung,2024-03-22,74DA38F20B0C,2.0,1.0,23.276,120.721,9.0,myPM2.5_0C,23.0,24.0,14.0,100.0,17.37,2024-03-22T19:18:16Z
92,19:24:25,高雄市民生國小 高雄市那瑪夏區達卡努瓦里大光巷七鄰159號,高雄市市立民生國小(2018),AirBox,kaohsiung,2024-03-22,74DA38F20B0C,2.0,1.0,23.276,120.721,9.0,myPM2.5_0C,23.0,25.0,14.0,100.0,17.37,2024-03-22T19:24:25Z
93,19:30:34,高雄市民生國小 高雄市那瑪夏區達卡努瓦里大光巷七鄰159號,高雄市市立民生國小(2018),AirBox,kaohsiung,2024-03-22,74DA38F20B0C,2.0,1.0,23.276,120.721,9.0,myPM2.5_0C,23.0,24.0,14.0,100.0,17.37,2024-03-22T19:30:34Z
94,19:36:41,高雄市民生國小 高雄市那瑪夏區達卡努瓦里大光巷七鄰159號,高雄市市立民生國小(2018),AirBox,kaohsiung,2024-03-22,74DA38F20B0C,2.0,1.0,23.276,120.721,9.0,myPM2.5_0C,21.0,23.0,13.0,100.0,17.25,2024-03-22T19:36:41Z
95,19:42:50,高雄市民生國小 高雄市那瑪夏區達卡努瓦里大光巷七鄰159號,高雄市市立民生國小(2018),AirBox,kaohsiung,2024-03-22,74DA38F20B0C,2.0,1.0,23.276,120.721,9.0,myPM2.5_0C,22.0,24.0,13.0,100.0,17.25,2024-03-22T19:42:50Z
96,19:48:58,高雄市民生國小 高雄市那瑪夏區達卡努瓦里大光巷七鄰159號,高雄市市立民生國小(2018),AirBox,kaohsiung,2024-03-22,74DA38F20B0C,2.0,1.0,23.276,120.721,9.0,myPM2.5_0C,23.0,24.0,14.0,100.0,17.12,2024-03-22T19:48:58Z
97,19:55:07,高雄市民生國小 高雄市那瑪夏區達卡努瓦里大光巷七鄰159號,高雄市市立民生國小(2018),AirBox,kaohsiung,2024-03-22,74DA38F20B0C,2.0,1.0,23.276,120.721,9.0,myPM2.5_0C,24.0,25.0,14.0,100.0,17.12,2024-03-22T19:55:07Z
98,20:01:16,高雄市民生國小 高雄市那瑪夏區達卡努瓦里大光巷七鄰159號,高雄市市立民生國小(2018),AirBox,kaohsiung,2024-03-22,74DA38F20B0C,2.0,1.0,23.276,120.721,9.0,myPM2.5_0C,22.0,23.0,14.0,100.0,17.12,2024-03-22T20:01:16Z
99,20:07:25,高雄市民生國小 高雄市那瑪夏區達卡努瓦里大光巷七鄰159號,高雄市市立民生國小(2018),AirBox,kaohsiung,2024-03-22,74DA38F20B0C,2.0,1.0,23.276,120.721,9.0,myPM2.5_0C,23.0,24.0,14.0,100.0,17.12,2024-03-22T20:07:25Z
100,20:13:35,高雄市民生國小 高雄市那瑪夏區達卡努瓦里大光巷七鄰159號,高雄市市立民生國小(2018),AirBox,kaohsiung,2024-03-22,74DA38F20B0C,2.0,1.0,23.276,120.721,9.0,myPM2.5_0C,22.0,24.0,13.0,100.0,17.0,2024-03-22T20:13:35Z
101,20:19:45,高雄市民生國小 高雄市那瑪夏區達卡努瓦里大光巷七鄰159號,高雄市市立民生國小(2018),AirBox,kaohsiung,2024-03-22,74DA38F20B0C,2.0,1.0,23.276,120.721,9.0,myPM2.5_0C,22.0,23.0,14.0,100.0,17.0,2024-03-22T20:19:45Z
102,20:25:57,高雄市民生國小 高雄市那瑪夏區達卡努瓦里大光巷七鄰159號,高雄市市立民生國小(2018),AirBox,kaohsiung,2024-03-22,74DA38F20B0C,2.0,1.0,23.276,120.721,9.0,myPM2.5_0C,23.0,24.0,14.0,100.0,17.0,2024-03-22T20:25:57Z
103,20:32:07,高雄市民生國小 高雄市那瑪夏區達卡努瓦里大光巷七鄰159號,高雄市市立民生國小(2018),AirBox,kaohsiung,2024-03-22,74DA38F20B0C,2.0,1.0,23.276,120.721,9.0,myPM2.5_0C,23.0,24.0,13.0,100.0,17.0,2024-03-22T20:32:07Z
104,20:38:18,高雄市民生國小 高雄市那瑪夏區達卡努瓦里大光巷七鄰159號,高雄市市立民生國小(2018),AirBox,kaohsiung,2024-03-22,74DA38F20B0C,2.0,1.0,23.276,120.721,9.0,myPM2.5_0C,24.0,25.0,14.0,100.0,17.0,2024-03-22T20:38:18Z
105,20:44:27,高雄市民生國小 高雄市那瑪夏區達卡努瓦里大光巷七鄰159號,高雄市市立民生國小(2018),AirBox,kaohsiung,2024-03-22,74DA38F20B0C,2.0,1.0,23.276,120.721,9.0,myPM2.5_0C,22.0,23.0,14.0,100.0,17.0,2024-03-22T20:44:27Z
106,20:50:38,高雄市民生國小 高雄市那瑪夏區達卡努瓦里大光巷七鄰159號,高雄市市立民生國小(2018),AirBox,kaohsiung,2024-03-22,74DA38F20B0C,2.0,1.0,23.276,120.721,9.0,myPM2.5_0C,26.0,27.0,15.0,100.0,17.0,2024-03-22T20:50:38Z
107,20:56:47,高雄市民生國小 高雄市那瑪夏區達卡努瓦里大光巷七鄰159號,高雄市市立民生國小(2018),AirBox,kaohsiung,2024-03-22,74DA38F20B0C,2.0,1.0,23.276,120.721,9.0,myPM2.5_0C,25.0,26.0,15.0,100.0,17.12,2024-03-22T20:56:47Z
108,21:02:55,高雄市民生國小 高雄市那瑪夏區達卡努瓦里大光巷七鄰159號,高雄市市立民生國小(2018),AirBox,kaohsiung,2024-03-22,74DA38F20B0C,2.0,1.0,23.276,120.721,9.0,myPM2.5_0C,25.0,27.0,15.0,100.0,17.25,2024-03-22T21:02:55Z
109,21:09:04,高雄市民生國小 高雄市那瑪夏區達卡努瓦里大光巷七鄰159號,高雄市市立民生國小(2018),AirBox,kaohsiung,2024-03-22,74DA38F20B0C,2.0,1.0,23.276,120.721,9.0,myPM2.5_0C,24.0,25.0,15.0,100.0,17.25,2024-03-22T21:09:04Z
110,21:15:15,高雄市民生國小 高雄市那瑪夏區達卡努瓦里大光巷七鄰159號,高雄市市立民生國小(2018),AirBox,kaohsiung,2024-03-22,74DA38F20B0C,2.0,1.0,23.276,120.721,9.0,myPM2.5_0C,25.0,26.0,14.0,100.0,17.25,2024-03-22T21:15:15Z
111,21:21:23,高雄市民生國小 高雄市那瑪夏區達卡努瓦里大光巷七鄰159號,高雄市市立民生國小(2018),AirBox,kaohsiung,2024-03-22,74DA38F20B0C,2.0,1.0,23.276,120.721,9.0,myPM2.5_0C,24.0,25.0,14.0,100.0,17.25,2024-03-22T21:21:23Z
112,21:27:30,高雄市民生國小 高雄市那瑪夏區達卡努瓦里大光巷七鄰159號,高雄市市立民生國小(2018),AirBox,kaohsiung,2024-03-22,74DA38F20B0C,2.0,1.0,23.276,120.721,9.0,myPM2.5_0C,23.0,23.0,14.0,100.0,17.25,2024-03-22T21:27:30Z
113,21:33:40,高雄市民生國小 高雄市那瑪夏區達卡努瓦里大光巷七鄰159號,高雄市市立民生國小(2018),AirBox,kaohsiung,2024-03-22,74DA38F20B0C,2.0,1.0,23.276,120.721,9.0,myPM2.5_0C,23.0,24.0,14.0,100.0,17.25,2024-03-22T21:33:40Z
114,21:39:51,高雄市民生國小 高雄市那瑪夏區達卡努瓦里大光巷七鄰159號,高雄市市立民生國小(2018),AirBox,kaohsiung,2024-03-22,74DA38F20B0C,2.0,1.0,23.276,120.721,9.0,myPM2.5_0C,24.0,25.0,14.0,100.0,17.25,2024-03-22T21:39:51Z
115,21:46:00,高雄市民生國小 高雄市那瑪夏區達卡努瓦里大光巷七鄰159號,高雄市市立民生國小(2018),AirBox,kaohsiung,2024-03-22,74DA38F20B0C,2.0,1.0,23.276,120.721,9.0,myPM2.5_0C,24.0,25.0,14.0,100.0,17.25,2024-03-22T21:46:00Z
116,21:52:10,高雄市民生國小 高雄市那瑪夏區達卡努瓦里大光巷七鄰159號,高雄市市立民生國小(2018),AirBox,kaohsiung,2024-03-22,74DA38F20B0C,2.0,1.0,23.276,120.721,9.0,myPM2.5_0C,24.0,25.0,14.0,100.0,17.12,2024-03-22T21:52:10Z
117,21:58:20,高雄市民生國小 高雄市那瑪夏區達卡努瓦里大光巷七鄰159號,高雄市市立民生國小(2018),AirBox,kaohsiung,2024-03-22,74DA38F20B0C,2.0,1.0,23.276,120.721,9.0,myPM2.5_0C,24.0,25.0,14.0,100.0,17.12,2024-03-22T21:58:20Z
118,22:04:29,高雄市民生國小 高雄市那瑪夏區達卡努瓦里大光巷七鄰159號,高雄市市立民生國小(2018),AirBox,kaohsiung,2024-03-22,74DA38F20B0C,2.0,1.0,23.276,120.721,9.0,myPM2.5_0C,24.0,25.0,14.0,100.0,17.12,2024-03-22T22:04:29Z
119,22:10:40,高雄市民生國小 高雄市那瑪夏區達卡努瓦里大光巷七鄰159號,高雄市市立民生國小(2018),AirBox,kaohsiung,2024-03-22,74DA38F20B0C,2.0,1.0,23.276,120.721,9.0,myPM2.5_0C,24.0,26.0,14.0,100.0,17.12,2024-03-22T22:10:40Z
120,22:16:49,高雄市民生國小 高雄市那瑪夏區達卡努瓦里大光巷七鄰159號,高雄市市立民生國小(2018),AirBox,kaohsiung,2024-03-22,74DA38F20B0C,2.0,1.0,23.276,120.721,9.0,myPM2.5_0C,24.0,25.0,14.0,100.0,17.0,2024-03-22T22:16:49Z
121,22:22:58,高雄市民生國小 高雄市那瑪夏區達卡努瓦里大光巷七鄰159號,高雄市市立民生國小(2018),AirBox,kaohsiung,2024-03-22,74DA38F20B0C,2.0,1.0,23.276,120.721,9.0,myPM2.5_0C,26.0,28.0,16.0,100.0,16.87,2024-03-22T22:22:58Z
122,22:29:08,高雄市民生國小 高雄市那瑪夏區達卡努瓦里大光巷七鄰159號,高雄市市立民生國小(2018),AirBox,kaohsiung,2024-03-22,74DA38F20B0C,2.0,1.0,23.276,120.721,9.0,myPM2.5_0C,25.0,27.0,15.0,100.0,17.12,2024-03-22T22:29:08Z
123,22:35:18,高雄市民生國小 高雄市那瑪夏區達卡努瓦里大光巷七鄰159號,高雄市市立民生國小(2018),AirBox,kaohsiung,2024-03-22,74DA38F20B0C,2.0,1.0,23.276,120.721,9.0,myPM2.5_0C,26.0,27.0,15.0,100.0,17.0,2024-03-22T22:35:18Z
124,22:41:25,高雄市民生國小 高雄市那瑪夏區達卡努瓦里大光巷七鄰159號,高雄市市立民生國小(2018),AirBox,kaohsiung,2024-03-22,74DA38F20B0C,2.0,1.0,23.276,120.721,9.0,myPM2.5_0C,25.0,27.0,15.0,100.0,17.0,2024-03-22T22:41:25Z
125,22:47:35,高雄市民生國小 高雄市那瑪夏區達卡努瓦里大光巷七鄰159號,高雄市市立民生國小(2018),AirBox,kaohsiung,2024-03-22,74DA38F20B0C,2.0,1.0,23.276,120.721,9.0,myPM2.5_0C,27.0,28.0,16.0,100.0,17.0,2024-03-22T22:47:35Z
126,22:53:47,高雄市民生國小 高雄市那瑪夏區達卡努瓦里大光巷七鄰159號,高雄市市立民生國小(2018),AirBox,kaohsiung,2024-03-22,74DA38F20B0C,2.0,1.0,23.276,120.721,9.0,myPM2.5_0C,29.0,31.0,17.0,100.0,17.12,2024-03-22T22:53:47Z
127,22:59:58,高雄市民生國小 高雄市那瑪夏區達卡努瓦里大光巷七鄰159號,高雄市市立民生國小(2018),AirBox,kaohsiung,2024-03-22,74DA38F20B0C,2.0,1.0,23.276,120.721,9.0,myPM2.5_0C,28.0,29.0,17.0,100.0,17.37,2024-03-22T22:59:58Z
128,23:06:12,高雄市民生國小 高雄市那瑪夏區達卡努瓦里大光巷七鄰159號,高雄市市立民生國小(2018),AirBox,kaohsiung,2024-03-22,74DA38F20B0C,2.0,1.0,23.276,120.721,9.0,myPM2.5_0C,29.0,30.0,16.0,100.0,17.5,2024-03-22T23:06:12Z